www.pogodaiklimat.ru

Погода и климат >> Архив погоды >> Мексика >> Monterrey


ПОГОДА в Monterrey

  • Прогноз погоды в Monterrey
  • Монитор погоды в Monterrey
  • Климат города

АРХИВ ПОГОДЫ в Monterrey

Время (UTC), дата Ветер
(напр.,м/с)
 
Видим.   Явления Облачность Т
(С)
Тd
(С)
f
(%)
Тe
(С)
Тes
(С)
Комфортность P
(гПа)
Po
(гПа)
Тmin
(С)
Tmax
(С)
R
(мм)
R24
(мм)
S
(см)
00 14.09 Ю 3 2000 м слабая морось {туман} 9/9 100 м
[St]
+26.6 +25.0 91 +38 +38 очень
душно
1010.1 954.9 2
03 14.09 Ю 1 1000 м мгла {туман} 1/0
[As trans]
+24.0 +22.6 92 +31 +31 очень
душно
1011.4 956.1
15 14.09 СЗ 1 2000 м дым 4/4 450 м
[Sc]
+25.6 +22.0 81 1012.0 95.0
00 15.09 СВ 2 5000 м 8/8 600 м
[Sc]
+27.4 +22.2 73 +36 +36 очень
душно
1007.9 953.0 +23.0 +34.4
03 15.09 Ю 1 800 м морось {дождь} 8/8 60 м
[Frnb]
+24.6 +24.1 97 +34 +34 очень
душно
1010.6 955.5 3
09 15.09 ЮЗ 1 800 м в посл. час морось {туман} 8/8 180 м
[St]
+24.2 +22.8 92 +32 +32 очень
душно
1009.9 954.4
12 15.09 СВ 1 1000 м дым 3/3 210 м
[St]
+23.6 +21.9 90 +30 +30 очень
душно
1010.2 954.4 +23.4 +34.4
18 15.09 В 2 2000 м мгла 8/8 1080 м
[Sc]
+31.4 +22.7 60 +41 +45 опасность
перегрева
1010.5 954.8 +23.4 +32.2
21 15.09 ЮВ 2 1000 м мгла 8/8 1200 м
[Sc]
+32.6 +22.9 57 +43 +45 опасность
перегрева
1007.6 952.5
00 16.09 В 3 3000 м мгла {туман} 10/10 300 м
[Sc]
+25.4 +22.9 86 +34 +34 очень
душно
1007.9 952.9 +23.4 +33.2
03 16.09 В 1 1000 м мгла {туман} 9/9 180 м
[St]
+23.4 +22.3 94 +32 +32 очень
душно
1009.5 954.4
12 16.09 ЮВ 1 800 м мгла {туман} 10/10 200 м
[St]
+23.4 +21.4 89 +32 +32 очень
душно
1010.0 954.0 +23.4 +33.2
15 16.09 В 1 800 м мгла {туман} 10/10 240 м
[St]
+24.0 +22.1 89 +31 +31 очень
душно
1011.5 955.5
18 16.09 В 1 2000 м мгла 10/10 700 м
[Sc]
+28.0 +22.5 72 +37 +37 очень
душно
1011.0 955.0 +23.4 +29.4
21 16.09 В 2 1000 м мгла 6/6 1000 м
[Sc]
+30.2 +22.3 63 +39 +44 очень
душно
1008.6 953.1
00 17.09 ЮВ 3 3000 м мгла {туман} 8/8 600 м
[Sc]
+28.2 +22.8 73 +38 +38 очень
душно
1007.7 952.5 +23.4 +31.2
06 17.09 В 4 800 м мгла {туман} 9/9 100 м
[St]
+23.8 +22.4 92 +31 +31 очень
душно
1010.5 955.1 +23.4 +31.2
09 17.09 В 3 700 м мгла {морось, туман} 10/10 180 м
[St]
+23.4 +22.0 92 +32 +32 очень
душно
1010.1 954.4 0.0
12 17.09 В 1 800 м мгла {туман} 10/10 100 м
[St]
+23.4 +22.0 92 +32 +32 очень
душно
1010.8 954.8 0.0
15 17.09 В 1 1000 м мгла {туман} 10/10 270 м
[St]
+24.6 +22.4 88 +32 +32 очень
душно
1012.4 956.3
18 17.09 В 2 1000 м мгла 9/9 700 м
[Sc]
+28.6 +23.2 73 +39 +40 очень
душно
1012.5 956.5 +23.2 +29.8
21 17.09 В 5 1000 м мгла 10/10 900 м
[Sc]
+29.4 +22.3 66 +38 +38 очень
душно
1010.1 954.5
00 18.09 В 3 2000 м мгла {туман} 8/8 600 м
[Sc]
+28.0 +22.8 73 +37 +37 очень
душно
1009.4 954.1 +23.2 +31.4
09 18.09 В 2 800 м мгла {туман} 5/5 240 м
[St]
+23.2 +20.9 87 +31 +31 очень
душно
1011.7 956.1
12 18.09 В 1 1000 м мгла {туман} 8/8 210 м
[St]
+22.4 +20.7 90 +29 +29 очень
душно
1012.5 956.5 +22.4 +31.4
15 18.09 ЮВ 1 1000 м дым 3/3 660 м
[Sc]
+25.6 +20.2 72 +32 +36 очень
душно
1013.7 957.6
18 18.09 В 3 1000 м мгла 6/6 930 м
[Sc]
+28.6 +21.1 64 +36 +42 очень
душно
1013.4 957.4 +22.4 +29.6
21 18.09 В 4 2000 м мгла 8/8 1320 м
[Sc]
+31.8 +21.3 54 +40 +41 очень
душно
1010.0 954.4
09 19.09 В 2 800 м мгла {туман} 5/5 240 м
[St]
+24.2 +22.3 89 +31 +31 очень
душно
1010.3 955.0
15 19.09 В 1 1000 м мгла {туман} 8/8 270 м
[St]
+25.2 +22.2 83 +33 +34 очень
душно
1012.4 956.5
18 19.09 В 2 1000 м дым 10/10 500 м
[Sc]
+27.0 +22.9 78 +36 +36 очень
душно
1012.5 956.6 +23.8 +28.0
21 19.09 В 2 500 м мгла 10/10 700 м
[Sc]
+27.8 +22.3 72 +36 +36 очень
душно
1010.7 955.0
00 20.09 В 3 1000 м мгла {туман} 10/10 300 м
[Sc]
+26.0 +23.0 84 +35 +35 очень
душно
1009.6 954.1
18 20.09 В 2 1000 м мгла 8/8 900 м
[Sc]
+29.4 +22.3 66 +38 +42 очень
душно
1011.8 956.0 +23.0 +31.8
21 20.09 В 3 1000 м мгла 6/6 1200 м
[Sc]
+32.0 +22.5 57 +41 +45 опасность
перегрева
1009.4 954.0

 

Местоположение метеостанции Monterrey (Мексика): широта 25.73 долгота -100.30 высота над уровнем моря 515 м.

В архиве по умолчанию представлена погода в Monterrey за последнюю неделю. Архивные данные за месяц целиком и за предыдущие месяцы, начиная с января 2011 года, Вы можете получить, выбрав интересующий диапазон дат из раскрывающегося списка и нажав кнопку "Ввод!".


*Определитесь, кто Вы:
робот инопланетянин человек

Внимание! Время в таблицах - всемирное. Для получения местного времени необходимо прибавить поправку, которая в Monterrey равна -6 ч.

Смотрите также архив погоды в соседних городах и на ближайших метеорологических станциях:

Погода в Saltillo (Мексика) (81 км)
Погода в Monclova (Мексика) (168 км)
Погода в Ciudad Victoria (Мексика) (252 км)
Погода в Soto La Marina (Мексика) (304 км)
Погода в Torreon (Мексика) (312 км)
Погода в Piedras Negras (Мексика) (331 км)
Погода в Zacatecas (Мексика) (397 км)
Погода в San Luis Potosi (Мексика) (400 км)
Погода в Sombrerete (Мексика) (407 км)
Погода в Rio Verde (Мексика) (424 км)

Пояснения к столбцам:

Ветер - указаны скорость ветра в м/с - средняя за 10 мин, порывы в срок и между сроками (в фигурных скобках) и направление, откуда дует ветер: С - северный, СВ - северо-восточный, В - восточный, ЮВ - юго-восточный, Ю - южный, ЮЗ - юго-западный, З - западный, СЗ - северо-западный.
Видимость - горизонтальная дальность видимости в метрах или километрах. При видимости от 1 до 10 км при отсутствии осадков обычно наблюдается дымка, при ухудшении видимости до 1 км и менее - туман. В сухую погоду видимость может ухудшаться дымом, пылью или мглою.
Явления - указаны атмосферные явления, наблюдавшиеся в срок или в последний час перед сроком; фигурными скобками обозначены явления, наблюдавшиеся между сроками (за 1-3 часа до срока); квадратными скобками обозначены град или гололедные отложения с указанием их диаметра в мм.
Облачность - указаны через наклонную черту общая и нижняя облачность в баллах и высота нижней границы облаков в метрах; квадратными скобками обозначены формы облаков: Ci - перистые, Cs - перисто-слоистые, Cc - перисто-кучевые, Ac - высококучевые, As - высокослоистые, Sc - слоисто-кучевые, Ns - слоисто-дождевые, Cu - кучевые, Cb - кучево-дождевые. Подробнее классификацию облаков см. в Атласе облаков (PDF).
T - Температура воздуха - температура, измеренная на высоте 2 м над землей.
Td - Температура точки росы - температура, при понижении до которой содержащийся в воздухе водяной пар достигнет насыщения.
f - Относительная влажность воздуха - влажноcть воздуха, измеренная на высоте 2 м над землей.
Te - Эффективная температура - температура, которую ощущает одетый по сезону человек в тени. Характеристика душности погоды. При расчете учитывается влияние влажности воздуха и скорости ветра на теплоощущения человека.
Tes - Эффективная температура на солнце - температура, которую ощущает человек, с поправкой на солнечный нагрев. Характеристика знойности погоды. Зависит от высоты солнца над горизонтом, облачности и скорости ветра. Ночью, в пасмурную погоду, а также при ветре 12 м/с и более поправка равна нулю.
P - Атмосферное давление - приведенное к уровню моря атмосферное давление.
Po - Атмосферное давление - измеренное на уровне метеостанции атмосферное давление.
Tmin - Минимальная температура - минимум температуры воздуха на высоте 2 м над землей.
Tmax - Максимальная температура - максимум температуры воздуха на высоте 2 м над землей.
R - Количество осадков - Количество выпавших осадков за период времени, мм. При наведении курсора мыши на число - период времени, за который выпало указанное количество осадков.
R24 - Количество осадков - Количество выпавших осадков за 24 часа, мм.
S - Снежный покров - Высота снежного покрова, см. При наведении курсора мыши на число - состояние снежного покрова и степень покрытия местности в баллах.